Location: SE Lincoln, NE
(40.7805°N, 96.6275°W)
Time: 03:04:01
(UTC-05:00)

Cosmos 1238 Rocket - Pass Details

Date: 15 May 2021
Orbit: 373 x 1021 km, 82.9° (Epoch: 23 June)

Event Time Altitude Azimuth Distance (km) Brightness Sun altitude
Rises 23:21:23 0° 356° (N) 3,557 8.0 -23.8°
Reaches altitude 10° 23:24:06 10° 0° (N) 2,524 6.9 -24.0°
Maximum altitude 23:29:43 57° 79° (ENE) 900 3.7 -24.6°
Enters shadow 23:29:56 56° 90° (E) 899 3.6 -24.6°
